| time (UTC) | temp F | wind direction | speed MPH | gust MPH | rain 1hr in | rain 24hr in | rain mn in | humidity % | barometer mb |
| 20260506090050 | 45 | 190 | 0.0 | 2.0 | 0.00 | 0.27 | 0.08 | 99 | 1009.2 |
| 20260506084553 | 45 | 180 | 0.0 | 4.0 | 0.00 | 0.27 | 0.08 | 99 | 1009.1 |
| 20260506083051 | 45 | 186 | 0.0 | 3.0 | 0.00 | 0.27 | 0.08 | 99 | 1008.9 |
| 20260506081549 | 45 | 186 | 0.0 | 2.0 | 0.00 | 0.27 | 0.08 | 99 | 1008.8 |
| 20260506073047 | 45 | 193 | 0.0 | 3.0 | 0.02 | 0.27 | 0.08 | 98 | 1008.6 |
| 20260506071542 | 45 | 202 | 0.0 | 4.0 | 0.02 | 0.27 | 0.08 | 97 | 1008.6 |
| 20260506061536 | 45 | 163 | 0.0 | 4.0 | 0.00 | 0.25 | 0.06 | 97 | 1008.3 |
| 20260506044522 | 47 | 223 | 0.0 | 3.0 | 0.06 | 0.23 | 0.04 | 98 | 1008.0 |
| 20260506043020 | 48 | 196 | 0.0 | 5.0 | 0.06 | 0.22 | 0.03 | 97 | 1007.6 |
| 20260506041517 | 48 | 301 | 2.0 | 7.0 | 0.06 | 0.21 | 0.02 | 96 | 1007.4 |
| 20260506040032 | 49 | 257 | 2.0 | 8.0 | 0.05 | 0.19 | 0.00 | 96 | 1007.7 |
| 20260506034513 | 49 | 332 | 1.0 | 4.0 | 0.04 | 0.17 | 0.17 | 96 | 1007.0 |
| 20260506033011 | 50 | 286 | 2.0 | 13.0 | 0.04 | 0.16 | 0.16 | 94 | 1007.1 |
| 20260506031510 | 50 | 256 | 0.0 | 10.0 | 0.05 | 0.15 | 0.15 | 93 | 1006.5 |
| 20260506030012 | 51 | 242 | 2.0 | 14.0 | 0.04 | 0.14 | 0.14 | 92 | 1006.5 |
| 20260506024508 | 51 | 304 | 3.0 | 13.0 | 0.03 | 0.13 | 0.13 | 92 | 1006.6 |
| 20260506023004 | 53 | 290 | 3.0 | 9.0 | 0.02 | 0.12 | 0.12 | 89 | 1006.3 |
| 20260506021503 | 55 | 273 | 3.0 | 16.0 | 0.00 | 0.10 | 0.10 | 81 | 1006.1 |
| 20260506020002 | 58 | 198 | 3.0 | 11.0 | 0.00 | 0.10 | 0.10 | 73 | 1005.7 |
| 20260506014601 | 59 | 251 | 1.0 | 12.0 | 0.00 | 0.10 | 0.10 | 72 | 1005.5 |
| 20260506013104 | 59 | 296 | 1.0 | 11.0 | 0.00 | 0.10 | 0.10 | 70 | 1005.0 |
| 20260506011555 | 60 | 281 | 1.0 | 18.0 | 0.00 | 0.10 | 0.10 | 69 | 1004.7 |
| 20260506010110 | 60 | 253 | 1.0 | 12.0 | 0.00 | 0.10 | 0.10 | 69 | 1004.4 |
| 20260506004553 | 61 | 302 | 3.0 | 11.0 | 0.00 | 0.10 | 0.10 | 69 | 1004.0 |
| 20260506003050 | 61 | 300 | 1.0 | 13.0 | 0.00 | 0.10 | 0.10 | 71 | 1003.5 |
| 20260506001548 | 62 | 244 | 2.0 | 20.0 | 0.00 | 0.10 | 0.10 | 74 | 1003.7 |
| 20260506000046 | 61 | 296 | 2.0 | 10.0 | 0.00 | 0.10 | 0.10 | 81 | 1003.4 |
| 20260505234602 | 62 | 254 | 1.0 | 5.0 | 0.00 | 0.10 | 0.10 | 85 | 1003.0 |
| 20260505233042 | 62 | 281 | 1.0 | 7.0 | 0.00 | 0.10 | 0.10 | 83 | 1002.8 |
| 20260505231541 | 62 | 176 | 1.0 | 6.0 | 0.00 | 0.10 | 0.10 | 83 | 1002.6 |
| 20260505230040 | 62 | 309 | 1.0 | 7.0 | 0.00 | 0.10 | 0.10 | 82 | 1002.2 |
| 20260505224540 | 63 | 285 | 2.0 | 11.0 | 0.00 | 0.10 | 0.10 | 81 | 1001.9 |
| 20260505223040 | 63 | 185 | 2.0 | 7.0 | 0.00 | 0.10 | 0.10 | 80 | 1001.5 |
| 20260505221539 | 64 | 275 | 1.0 | 9.0 | 0.00 | 0.10 | 0.10 | 79 | 1001.2 |
| 20260505220041 | 64 | 148 | 1.0 | 10.0 | 0.00 | 0.10 | 0.10 | 77 | 1001.1 |
| 20260505214559 | 65 | 132 | 3.0 | 9.0 | 0.00 | 0.10 | 0.10 | 77 | 1000.9 |
| 20260505213037 | 65 | 219 | 4.0 | 17.0 | 0.00 | 0.10 | 0.10 | 76 | 1000.5 |
| 20260505211535 | 65 | 205 | 3.0 | 15.0 | 0.00 | 0.10 | 0.10 | 76 | 1000.4 |
| 20260505210034 | 65 | 174 | 2.0 | 14.0 | 0.00 | 0.10 | 0.10 | 75 | 999.9 |
| 20260505204537 | 65 | 225 | 3.0 | 20.0 | 0.00 | 0.10 | 0.10 | 76 | 999.8 |
| 20260505203038 | 64 | 235 | 2.0 | 16.0 | 0.01 | 0.10 | 0.10 | 78 | 999.9 |
| 20260505201536 | 63 | 258 | 3.0 | 13.0 | 0.01 | 0.10 | 0.10 | 82 | 1000.1 |
| 20260505200031 | 62 | 11 | 2.0 | 21.0 | 0.01 | 0.10 | 0.10 | 84 | 1000.0 |
| 20260505194538 | 62 | 233 | 4.0 | 23.0 | 0.01 | 0.11 | 0.10 | 86 | 1000.3 |
| 20260505193031 | 64 | 336 | 2.0 | 12.0 | 0.00 | 0.10 | 0.09 | 83 | 1000.1 |
| 20260505191529 | 64 | 205 | 3.0 | 12.0 | 0.00 | 0.10 | 0.09 | 81 | 1000.0 |
| 20260505190029 | 65 | 196 | 2.0 | 8.0 | 0.00 | 0.10 | 0.09 | 78 | 1000.0 |
| 20260505184528 | 65 | 215 | 3.0 | 9.0 | 0.00 | 0.10 | 0.09 | 77 | 999.9 |
| 20260505183027 | 66 | 178 | 1.0 | 13.0 | 0.00 | 0.10 | 0.09 | 76 | 1000.0 |
| 20260505181527 | 67 | 248 | 2.0 | 11.0 | 0.01 | 0.10 | 0.09 | 75 | 999.8 |
| 20260505180050 | 66 | 192 | 2.0 | 11.0 | 0.03 | 0.10 | 0.09 | 77 | 999.7 |
| 20260505174546 | 65 | 191 | 1.0 | 9.0 | 0.03 | 0.10 | 0.09 | 82 | 999.6 |
| 20260505173031 | 63 | 256 | 2.0 | 14.0 | 0.03 | 0.10 | 0.09 | 81 | 999.5 |
| 20260505171525 | 68 | 223 | 1.0 | 19.0 | 0.01 | 0.08 | 0.07 | 72 | 999.4 |
| 20260505170023 | 70 | 188 | 2.0 | 13.0 | 0.00 | 0.07 | 0.06 | 62 | 998.7 |
| 20260505164522 | 71 | 193 | 4.0 | 13.0 | 0.00 | 0.07 | 0.06 | 61 | 998.8 |
| 20260505163020 | 71 | 146 | 4.0 | 11.0 | 0.00 | 0.07 | 0.06 | 62 | 999.3 |
| 20260505161517 | 71 | 342 | 1.0 | 10.0 | 0.00 | 0.07 | 0.06 | 63 | 999.5 |
| 20260505153008 | 70 | 300 | 2.0 | 9.0 | 0.00 | 0.08 | 0.06 | 65 | 1000.0 |
| 20260505151504 | 68 | 197 | 2.0 | 10.0 | 0.00 | 0.08 | 0.06 | 67 | 1000.3 |
| 20260505124547 | 59 | 197 | 2.0 | 8.0 | 0.01 | 0.15 | 0.01 | 77 | 1001.9 |
| 20260505123049 | 62 | 146 | 0.0 | 5.0 | 0.00 | 0.14 | 0.00 | 71 | 1001.5 |
| 20260505121544 | 63 | 193 | 1.0 | 11.0 | 0.00 | 0.14 | 0.00 | 63 | 1001.3 |
| 20260505120044 | 64 | 248 | 1.0 | 8.0 | 0.00 | 0.14 | 0.00 | 61 | 1001.2 |
| 20260505114539 | 63 | 167 | 0.0 | 10.0 | 0.00 | 0.14 | 0.00 | 62 | 1001.1 |
| 20260505113035 | 62 | 169 | 1.0 | 7.0 | 0.00 | 0.14 | 0.00 | 63 | 1001.2 |
| 20260505111534 | 61 | 182 | 0.0 | 8.0 | 0.00 | 0.14 | 0.00 | 63 | 1001.3 |
| 20260505101531 | 59 | 185 | 0.0 | 6.0 | 0.00 | 0.14 | 0.00 | 64 | 1001.2 |
| 20260505100021 | 58 | 200 | 0.0 | 8.0 | 0.00 | 0.14 | 0.00 | 65 | 1001.3 |
| 20260505094514 | 58 | 205 | 0.0 | 5.0 | 0.00 | 0.14 | 0.00 | 65 | 1001.3 |
| 20260505093023 | 58 | 190 | 0.0 | 3.0 | 0.00 | 0.14 | 0.00 | 64 | 1001.3 |
| 20260505091512 | 58 | 240 | 0.0 | 6.0 | 0.00 | 0.14 | 0.00 | 64 | 1001.3 |